• In Netherlands
  • List of Countries
  • For 7 days
  • Water Temperature
  • Satellite Maps
  • Weather Map
  • Weather Widgets
  • user-avatar
    Login

    Hourly Weather Brussels

    Today, 22 July, Saturday

    Time Temperature Precipitation Wind Pressure Humidity
    00:00 +18°C° 0 mm 1 mps 754 mmHg 86%
    01:00 +17°C° 0 mm 2 mps 754 mmHg 87%
    02:00 +17°C° 0 mm 2 mps 754 mmHg 87%
    03:00 +17°C° 0 mm 2 mps 754 mmHg 88%
    04:00 +17°C° 0 mm 3 mps 754 mmHg 86%
    05:00 +18°C° 0 mm 3 mps 754 mmHg 84%
    06:00 +19°C° 0 mm 4 mps 754 mmHg 80%
    07:00 +20°C° 0 mm 4 mps 755 mmHg 74%
    08:00 +21°C° 0 mm 5 mps 755 mmHg 68%
    09:00 +22°C° 0 mm 5 mps 755 mmHg 62%
    10:00 +22°C° 0 mm 5 mps 755 mmHg 62%
    11:00 +23°C° 0 mm 5 mps 755 mmHg 62%
    12:00 +23°C° 0 mm 5 mps 755 mmHg 65%
    13:00 +23°C° 0.7 mm 5 mps 755 mmHg 66%
    14:00 +23°C° 0.7 mm 5 mps 755 mmHg 68%
    15:00 +23°C° 0.7 mm 5 mps 755 mmHg 70%
    16:00 +22°C° 0.4 mm 5 mps 755 mmHg 72%
    17:00 +21°C° 0.4 mm 4 mps 755 mmHg 75%
    18:00 +21°C° 0.4 mm 3 mps 755 mmHg 77%
    19:00 +19°C° 0.2 mm 3 mps 755 mmHg 79%
    20:00 +18°C° 0.2 mm 2 mps 755 mmHg 81%
    21:00 +17°C° 0.2 mm 2 mps 755 mmHg 82%
    22:00 +16°C° 0 mm 2 mps 755 mmHg 83%
    23:00 +16°C° 0 mm 2 mps 756 mmHg 83%

    Tomorrow, 23 July, Sunday

    Time Temperature Precipitation Wind Pressure Humidity
    00:00 +15°C° 0 mm 2 mps 756 mmHg 83%
    01:00 +15°C° 0 mm 2 mps 756 mmHg 84%
    02:00 +13°C° 0 mm 3 mps 756 mmHg 86%
    03:00 +13°C° 0 mm 4 mps 756 mmHg 87%
    04:00 +13°C° 0 mm 4 mps 756 mmHg 87%
    05:00 +14°C° 0 mm 5 mps 756 mmHg 86%
    06:00 +14°C° 0 mm 6 mps 756 mmHg 85%
    07:00 +15°C° 0.1 mm 6 mps 756 mmHg 82%
    08:00 +16°C° 0.1 mm 7 mps 756 mmHg 78%
    09:00 +16°C° 0.1 mm 7 mps 756 mmHg 75%
    10:00 +17°C° 0.2 mm 7 mps 756 mmHg 73%
    11:00 +18°C° 0.2 mm 7 mps 756 mmHg 70%
    12:00 +20°C° 0.2 mm 7 mps 757 mmHg 67%
    13:00 +20°C° 0.3 mm 7 mps 757 mmHg 66%
    14:00 +20°C° 0.3 mm 7 mps 756 mmHg 65%
    15:00 +21°C° 0.3 mm 6 mps 756 mmHg 65%
    16:00 +20°C° 0.2 mm 5 mps 756 mmHg 68%
    17:00 +19°C° 0.2 mm 5 mps 756 mmHg 72%
    18:00 +19°C° 0.2 mm 4 mps 756 mmHg 75%
    19:00 +18°C° 0.4 mm 3 mps 756 mmHg 79%
    20:00 +17°C° 0.4 mm 3 mps 756 mmHg 84%
    21:00 +16°C° 0.4 mm 2 mps 756 mmHg 88%
    22:00 +15°C° 1.3 mm 2 mps 755 mmHg 89%
    23:00 +15°C° 1.3 mm 2 mps 755 mmHg 91%

    Day after tomorrow, 24 July, Monday

    Time Temperature Precipitation Wind Pressure Humidity
    00:00 +15°C° 1.3 mm 1 mps 754 mmHg 92%
    01:00 +15°C° 3.1 mm 1 mps 753 mmHg 93%
    02:00 +15°C° 3.1 mm 2 mps 753 mmHg 93%
    03:00 +14°C° 3.1 mm 2 mps 752 mmHg 93%
    04:00 +14°C° 0.2 mm 2 mps 752 mmHg 93%
    05:00 +14°C° 0.2 mm 2 mps 752 mmHg 92%
    06:00 +15°C° 0.2 mm 2 mps 751 mmHg 91%
    07:00 +15°C° 0.7 mm 2 mps 751 mmHg 91%
    08:00 +14°C° 0.7 mm 3 mps 752 mmHg 91%
    09:00 +14°C° 0.7 mm 3 mps 752 mmHg 91%
    10:00 +14°C° 1.2 mm 3 mps 752 mmHg 90%
    11:00 +14°C° 1.2 mm 3 mps 752 mmHg 88%
    12:00 +16°C° 1.2 mm 2 mps 752 mmHg 87%
    13:00 +16°C° 1 mm 3 mps 752 mmHg 87%
    14:00 +16°C° 1 mm 3 mps 753 mmHg 87%
    15:00 +16°C° 1 mm 3 mps 753 mmHg 87%
    16:00 +15°C° 1.1 mm 4 mps 753 mmHg 88%
    17:00 +15°C° 1.1 mm 4 mps 753 mmHg 89%
    18:00 +15°C° 1.1 mm 4 mps 753 mmHg 89%
    19:00 +15°C° 1.2 mm 4 mps 754 mmHg 90%
    20:00 +15°C° 1.2 mm 5 mps 754 mmHg 91%
    21:00 +15°C° 1.2 mm 5 mps 754 mmHg 91%
    22:00 +14°C° 0.8 mm 5 mps 754 mmHg 92%
    23:00 +14°C° 0.8 mm 5 mps 754 mmHg 92%

    25 July, Tuesday

    Time Temperature Precipitation Wind Pressure Humidity
    00:00 +14°C° 0.8 mm 5 mps 754 mmHg 92%
    01:00 +14°C° 1 mm 5 mps 754 mmHg 92%
    02:00 +14°C° 1 mm 5 mps 753 mmHg 92%
    03:00 +14°C° 1 mm 5 mps 753 mmHg 92%
    04:00 +15°C° 1.5 mm 5 mps 753 mmHg 91%
    05:00 +15°C° 1.5 mm 5 mps 753 mmHg 91%
    06:00 +15°C° 1.5 mm 5 mps 753 mmHg 91%
    07:00 +16°C° 1.2 mm 6 mps 753 mmHg 89%
    08:00 +16°C° 1.2 mm 6 mps 753 mmHg 87%
    09:00 +17°C° 1.2 mm 6 mps 753 mmHg 85%
    10:00 +17°C° 1.6 mm 5 mps 754 mmHg 86%
    11:00 +17°C° 1.6 mm 5 mps 754 mmHg 87%
    12:00 +17°C° 1.6 mm 5 mps 754 mmHg 88%
    13:00 +17°C° 1.1 mm 5 mps 754 mmHg 88%
    14:00 +17°C° 1.1 mm 5 mps 754 mmHg 89%
    15:00 +17°C° 1.1 mm 5 mps 754 mmHg 89%
    16:00 +17°C° 0.5 mm 5 mps 754 mmHg 88%
    17:00 +17°C° 0.5 mm 5 mps 754 mmHg 88%
    18:00 +17°C° 0.5 mm 5 mps 754 mmHg 87%
    19:00 +17°C° 0.2 mm 5 mps 755 mmHg 88%
    20:00 +17°C° 0.2 mm 4 mps 755 mmHg 89%
    21:00 +17°C° 0.2 mm 4 mps 755 mmHg 90%
    22:00 +15°C° 0 mm 4 mps 755 mmHg 92%
    23:00 +15°C° 0 mm 4 mps 756 mmHg 93%

    26 July, Wednesday

    Time Temperature Precipitation Wind Pressure Humidity
    00:00 +16°C° 0 mm 3 mps 756 mmHg 94%
    01:00 +14°C° 0 mm 3 mps 755 mmHg 95%
    02:00 +14°C° 0 mm 3 mps 755 mmHg 96%
    03:00 +15°C° 0 mm 2 mps 755 mmHg 96%
    04:00 +14°C° 0 mm 3 mps 755 mmHg 95%
    05:00 +16°C° 0 mm 3 mps 756 mmHg 94%
    06:00 +16°C° 0 mm 3 mps 756 mmHg 93%
    07:00 +18°C° 0.1 mm 3 mps 756 mmHg 88%
    08:00 +19°C° 0.1 mm 3 mps 756 mmHg 83%
    09:00 +20°C° 0.1 mm 2 mps 756 mmHg 78%
    10:00 +21°C° 0.1 mm 3 mps 756 mmHg 74%
    11:00 +22°C° 0.1 mm 3 mps 756 mmHg 70%
    12:00 +22°C° 0.1 mm 3 mps 756 mmHg 66%
    13:00 +24°C° 0.1 mm 3 mps 756 mmHg 65%
    14:00 +24°C° 0.1 mm 3 mps 756 mmHg 63%
    15:00 +23°C° 0.1 mm 4 mps 756 mmHg 62%
    16:00 +24°C° 0 mm 3 mps 756 mmHg 65%
    17:00 +22°C° 0 mm 3 mps 756 mmHg 67%
    18:00 +21°C° 0 mm 2 mps 756 mmHg 70%
    19:00 +20°C° 0 mm 2 mps 756 mmHg 73%
    20:00 +19°C° 0 mm 1 mps 757 mmHg 76%
    21:00 +18°C° 0 mm 1 mps 757 mmHg 79%
    22:00 +18°C° 0 mm 1 mps 757 mmHg 79%
    23:00 +17°C° 0 mm 2 mps 757 mmHg 79%

    27 July, Thursday

    Time Temperature Precipitation Wind Pressure Humidity
    00:00 +17°C° 0 mm 2 mps 757 mmHg 79%
    01:00 +17°C° 0 mm 2 mps 757 mmHg 80%
    02:00 +17°C° 0 mm 3 mps 756 mmHg 80%
    03:00 +17°C° 0 mm 3 mps 756 mmHg 81%
    04:00 +17°C° 1.1 mm 4 mps 756 mmHg 84%
    05:00 +17°C° 1.1 mm 4 mps 756 mmHg 87%
    06:00 +17°C° 1.1 mm 4 mps 756 mmHg 91%
    07:00 +17°C° 0.9 mm 5 mps 756 mmHg 90%
    08:00 +17°C° 0.9 mm 5 mps 756 mmHg 90%
    09:00 +17°C° 0.9 mm 5 mps 756 mmHg 89%
    10:00 +19°C° 0.4 mm 5 mps 756 mmHg 89%
    11:00 +19°C° 0.4 mm 5 mps 756 mmHg 89%
    12:00 +19°C° 0.4 mm 5 mps 756 mmHg 90%
    13:00 +20°C° 0.2 mm 5 mps 756 mmHg 88%
    14:00 +21°C° 0.2 mm 5 mps 756 mmHg 86%
    15:00 +22°C° 0.2 mm 5 mps 756 mmHg 84%
    16:00 +21°C° 0.3 mm 5 mps 756 mmHg 84%
    17:00 +21°C° 0.3 mm 4 mps 756 mmHg 85%
    18:00 +20°C° 0.3 mm 4 mps 757 mmHg 86%
    19:00 +19°C° 0.1 mm 3 mps 757 mmHg 88%
    20:00 +18°C° 0.1 mm 3 mps 757 mmHg 89%
    21:00 +17°C° 0.1 mm 2 mps 758 mmHg 91%
    22:00 +17°C° 0 mm 2 mps 758 mmHg 91%
    23:00 +16°C° 0 mm 1 mps 758 mmHg 91%
    Show more